#timestamp,LO_Frequency,Hit 
1502510415.3,286046989.9,N
1502510435.1,286046993.2,N
1502510455.9,286046998.0,N
1502510475.7,286047001.0,N
1502510495.5,286047004.3,N
1502510515.4,286047000.7,N
1502510535.2,286047000.6,N
1502510555.0,286047001.7,N
1502510555.9,286047001.7,N
1502510575.8,286047000.0,N
1502510595.6,286047001.4,N
1502510615.4,286047002.4,N
1502510635.2,286047003.1,N
1502510655.1,286047004.7,N
1502510656.0,286047004.7,N
1502510675.8,286047006.8,N
1502510695.6,286047007.0,N
1502510715.5,286047004.6,N
1502510735.3,286047005.8,N
1502510755.1,286047010.7,N
1502510775.9,286047010.2,N
1502510795.7,286047010.1,N
1502510815.5,286047009.9,N
1502510835.4,286047010.3,N
1502510855.2,286047011.8,N
1502510875.0,286047010.0,N
1502510875.9,286047010.0,N
1502510895.8,286047010.3,N
1502510915.6,286047012.2,N
1502510935.4,286047010.5,N
1502510955.3,286047008.6,N
1502510975.1,286047007.3,N
1502510976.0,286047007.3,N
1502510995.8,286047005.3,N
1502511015.7,286047009.0,N
1502511035.5,286047006.3,N
1502511055.3,286047010.7,N
1502511075.2,286047011.6,P
1502511095.9,286047001.7,N
1502511115.7,286047001.9,N
1502511135.6,286047000.2,N
1502511155.4,286047003.8,N
1502511175.2,286047003.4,N
1502511195.1,286047004.6,N
1502511196.0,286047004.6,N
1502511215.4,286047005.8,N
1502511235.2,286047001.8,N
1502511255.1,286047003.5,N
1502511256.0,286047003.5,N
1502511275.8,286047005.3,N
1502511295.7,286047003.3,N
1502511315.5,286047002.0,N
1502511335.3,286047001.9,N
1502511355.1,286047004.7,N
1502511375.9,286047005.7,N
1502511395.7,286047003.6,N
1502511415.5,286047002.4,N
1502511435.4,286047002.6,N
1502511455.2,286047004.4,N
1502511475.0,286047002.2,N
1502511475.9,286047002.2,N
1502511495.8,286047004.7,N
1502511515.6,286047008.4,P
1502511535.4,286047007.6,P
1502511555.3,286047001.9,N
1502511575.1,286047005.2,N
1502511595.8,286047007.4,P
1502511615.7,286046998.6,N
1502511635.5,286046999.1,N
1502511655.3,286046996.5,N
1502511675.2,286046999.0,N
1502511695.9,286046998.2,N
1502511715.7,286046998.7,N
1502511735.6,286046999.5,N
1502511755.4,286046996.8,N
1502511775.2,286046996.7,N
1502511795.1,286046995.6,N
1502511796.0,286046995.6,N
1502511815.8,286046995.4,N
1502511835.6,286046996.3,N
1502511855.5,286046994.9,N
1502511875.3,286046998.9,N
1502511895.1,286046995.2,N
1502511915.9,286046994.9,N
1502511935.7,286046995.5,N
1502511955.5,286046995.3,N
1502511975.3,286046995.3,N
1502511995.2,286046998.0,N
1502512015.0,286046995.9,N
1502512015.9,286046995.9,N
1502512035.7,286046997.1,N
1502512055.6,286046998.7,N
1502512075.4,286046996.7,N
1502512095.2,286046999.6,N
1502512115.1,286046999.1,N
1502512116.0,286046999.1,N
1502512135.8,286046997.4,N
1502512155.6,286046995.1,P
1502512175.5,286047000.8,N
1502512195.3,286047000.0,N
1502512215.1,286047002.5,N
1502512235.9,286046999.2,N
1502512255.7,286046997.1,N
1502512275.5,286046995.2,N
1502512295.4,286046995.2,N
1502512315.2,286046994.6,N
1502512335.0,286046994.3,N
1502512335.9,286046994.3,N
1502512355.8,286046990.4,P
1502512375.6,286046992.2,N
1502512395.4,286046993.1,N
1502512415.3,286046991.6,P
1502512435.1,286046996.5,P
1502512455.8,286046996.7,N
1502512475.7,286046997.5,N
1502512495.5,286046995.5,N
1502512515.3,286046994.3,N
1502512535.2,286046991.3,P
1502512555.0,286046997.9,N
1502512555.9,286046997.9,N
1502512575.7,286047001.0,N
1502512595.6,286046998.5,N
1502512615.4,286046999.3,N
1502512635.2,286047002.4,N
1502512655.1,286047001.4,N
1502512656.0,286047001.4,N
1502512675.8,286047001.8,N
1502512695.6,286047002.8,N
1502512715.5,286046998.6,N
1502512735.3,286046999.7,N
1502512755.1,286046999.6,N
1502512775.8,286046997.8,N
1502512795.7,286046993.9,N
1502512815.5,286046994.1,N
1502512835.3,286046991.0,N
1502512855.2,286046989.6,N
1502512875.9,286046987.7,P
1502512895.7,286046989.9,N
1502512915.6,286046985.7,P
1502512935.4,286046988.7,N
1502512955.2,286046992.6,N
1502512975.1,286046996.1,N
1502512976.0,286046996.1,N
1502512995.8,286046996.0,N
1502513015.6,286046995.8,N
1502513035.5,286046999.1,N
1502513055.3,286047003.3,N
1502513075.1,286047007.2,N
1502513095.9,286047012.2,N
1502513115.7,286047006.5,N
1502513135.5,286047009.2,N
1502513155.4,286047005.7,N
1502513175.2,286047004.7,N
1502513195.0,286047005.1,N
1502513195.9,286047005.1,N
1502513215.7,286047003.2,N
1502513235.6,286047005.6,N
1502513255.4,286047004.9,N
1502513275.2,286047008.7,N
1502513295.1,286047007.9,N
1502513296.0,286047007.9,N
1502513315.8,286047006.3,N
1502513335.6,286047011.5,N
1502513355.5,286047009.2,N
1502513375.3,286047009.4,N
1502513395.1,286047010.6,N
1502513415.9,286047013.1,N
1502513435.7,286047009.3,N
1502513455.5,286047010.1,N
1502513475.4,286047008.9,N
1502513495.2,286047008.4,N
1502513515.0,286047013.9,N
1502513515.9,286047013.9,N
1502513535.8,286047008.2,N
1502513555.6,286047010.1,N
1502513575.4,286047009.6,N
1502513595.2,286047007.7,N
1502513615.1,286047010.8,P
1502513616.0,286047010.8,P
1502513635.8,286047001.3,N
1502513655.7,286047002.4,N
1502513675.5,286047000.3,N
1502513695.3,286047000.2,N
1502513715.2,286047000.9,N
1502513735.9,286047002.2,N
1502513755.7,286047000.0,N
1502513775.5,286047001.6,N
1502513795.4,286047004.3,N
1502513815.2,286047004.0,N
1502513835.0,286047004.6,N
1502513835.9,286047004.6,N
1502513855.8,286047005.0,N
1502513875.6,286047004.8,N
1502513895.4,286047003.1,N
1502513915.3,286047000.4,N
1502513935.1,286046999.8,N
1502513936.0,286046999.8,N
1502513955.8,286047001.9,N
1502513975.7,286047005.6,N
1502513995.5,286047005.8,N
